Location: Blackwater Beach
(38.5801°N, 75.1577°W)
Time: 03:20:23
(UTC+00:00)

Cosmos 2297 Rocket - Pass Details

Date: 25 May 2026
Orbit: 838 x 842 km, 71.0° (Epoch: 9 June)

Event Time Altitude Azimuth Distance (km) Brightness Sun altitude
Exits shadow 02:09:53 28° 169° (SSE) 1,507 3.0 -18.7°
Maximum altitude 02:12:33 52° 107° (ESE) 1,033 2.3 -19.0°
Drops below altitude 10° 02:18:00 10° 33° (NNE) 2,460 4.8 -19.7°
Sets 02:20:30 0° 28° (NNE) 3,399 5.7 -20.0°
